This is the latest recevied weather packets stored in our database for station/object DM4XI-13. If no packets are shown the sender has not sent any weather packets the latest 10 day(s).
| Time | Temp. | Humidity | Pressure | Rain* | Wind** | Luminosity | Snow |
|---|---|---|---|---|---|---|---|
| 1777310189 | 17.78° C | 30% | 1016.6 hPa | 0 mm | 0.45 m/s, 233° | 58 W/m² | - |
| 1777310128 | 17.78° C | 30% | 1016.4 hPa | 0 mm | 0.45 m/s, 246° | 60 W/m² | - |
| 1777310067 | 17.78° C | 29% | 1016.4 hPa | 0 mm | 0.45 m/s, 244° | 60 W/m² | - |
| 1777310006 | 17.78° C | 30% | 1016.4 hPa | 0 mm | 0.45 m/s, 314° | 63 W/m² | - |
| 1777309945 | 17.78° C | 28% | 1016.5 hPa | 0 mm | 0.45 m/s, 322° | 66 W/m² | - |
| 1777309884 | 17.78° C | 30% | 1016.6 hPa | 0 mm | 0 m/s | 67 W/m² | - |
| 1777309823 | 17.78° C | 30% | 1016.5 hPa | 0 mm | 0 m/s | 69 W/m² | - |
| 1777309762 | 17.78° C | 31% | 1016.5 hPa | 0 mm | 0 m/s | 68 W/m² | - |
| 1777309683 | 17.78° C | 30% | 1016.5 hPa | 0 mm | 0.45 m/s, 241° | 67 W/m² | - |
| 1777309622 | 17.78° C | 30% | 1016.6 hPa | 0 mm | 0.45 m/s, 241° | 69 W/m² | - |
| 1777309561 | 17.78° C | 30% | 1016.6 hPa | 0 mm | 0 m/s | 72 W/m² | - |
| 1777309501 | 18.33° C | 30% | 1016.6 hPa | 0 mm | 0.45 m/s, 262° | 76 W/m² | - |
| 1777309440 | 18.33° C | 28% | 1016.7 hPa | 0 mm | 0.89 m/s, 258° | 80 W/m² | - |
| 1777309379 | 18.33° C | 28% | 1016.6 hPa | 0 mm | 0.45 m/s, 253° | 80 W/m² | - |
| 1777309318 | 18.33° C | 28% | 1016.7 hPa | 0 mm | 0.45 m/s, 257° | 79 W/m² | - |
| 1777309257 | 18.33° C | 28% | 1016.5 hPa | 0 mm | 0.89 m/s, 344° | 80 W/m² | - |
| 1777309195 | 18.33° C | 28% | 1016.7 hPa | 0 mm | 0.89 m/s, 254° | 83 W/m² | - |
| 1777309135 | 18.33° C | 27% | 1016.5 hPa | 0 mm | 0.45 m/s, 303° | 85 W/m² | - |
| 1777309074 | 18.89° C | 27% | 1016.5 hPa | 0 mm | 1.34 m/s, 321° | 87 W/m² | - |
| 1777309013 | 18.89° C | 27% | 1016.7 hPa | 0 mm | 0.45 m/s, 156° | 94 W/m² | - |
| 1777308952 | 18.89° C | 28% | 1016.4 hPa | 0 mm | 0 m/s | 101 W/m² | - |
| 1777308891 | 18.89° C | 27% | 1016.7 hPa | 0 mm | 0.89 m/s, 304° | 95 W/m² | - |
| 1777308830 | 18.89° C | 28% | 1016.6 hPa | 0 mm | 0.45 m/s, 240° | 94 W/m² | - |
| 1777308769 | 18.89° C | 27% | 1016.7 hPa | 0 mm | 0.45 m/s, 341° | 106 W/m² | - |
| 1777308708 | 18.89° C | 29% | 1016.8 hPa | 0 mm | 0.89 m/s, 309° | 113 W/m² | - |
* Rain latest hour (hover to see other rain measurements)
** Current wind speed in m/s (hover to see current wind gust speed)